Location: Pilipovskiye Korichintsy
(49.1833°N, 27.4667°E)
Time: 22:22:39
(UTC+00:00)

Meteor 1-23 Rocket - Pass Details

Date: 14 July 2020
Orbit: 838 x 887 km, 81.3° (Epoch: 10 August)

Event Time Altitude Azimuth Distance (km) Brightness Sun altitude
Rises 00:42:18 0° 347° (NNW) 3,460 8.1 -12.1°
Reaches altitude 10° 00:44:43 10° 348° (NNW) 2,525 7.3 -11.8°
Maximum altitude 00:50:29 89° 265° (W) 884 4.3 -11.3°
Drops below altitude 10° 00:56:17 10° 171° (S) 2,535 6.3 -10.7°
Enters shadow 00:58:33 - 171° (S) 3,409 6.9 -10.5°
